Torna al catalogo

QIANFAN-209

AttivoComunicazioniPO
NORAD 69808·PAYLOAD·🇨🇳 China

Lanciato Jul 4, 2026 da Taiyuan Satellite Launch Center

Loading…

Prossimi Passaggi (prossime 24 ore)

TLE

AggiornatoSource: Space-Track

Epoca: Sep 14, 2026, 21:40 UTC

1 69808U 26153J   26257.90324967 -.01885654  00000-0 -13523+1 0  9993
2 69808  88.9973 352.0868 0006325 319.9611  40.1101 14.00872923 10267

Traccia QIANFAN-209 in tempo reale con AllMySat

Download on the App Store